Content
SEND FEEDBACK

Daily
Averages
Monthly
Summary
United States of America

LAWTON, PENNSYLVANIA


Home > North America > United States > Pennsylvania
Elevation: 1088 feet     Latitude: 41 47N     Longitude: 076 07W

WEATHER
 
SELECT A DAY
Number of Records: 248,064;   Date Range: 1/1/95 - 11/27/14
 
SHARE

PRINT THIS DATA

[ ← Previous Day ]
WEATHER ALMANAC - JANUARY 23, 2013
[ Next Day → ]
[ °C ]   °F
Weather ElementAverageHighLow
Temperature4.1 °F8.1 °F (1:53 pm)-0.9 °F (6:53 am)
Dewpoint-5.5 °F-2.9 °F (11:53 am)-9.9 °F (1:53 pm)
Humidity65.4 %79 % (1:53 am)44 % (1:53 pm)
Barometer30.14 in30.19 in (9:53 am)30.07 in (10:39 am)
Wind Speed7.7 mph12.7 mph (12:53 pm)
Wind Gust18.4 mph (1:53 pm)
Weather ElementAverage
Visibility9.8 mi
Wind DirectionWSW (260 °)

Weather ElementTotal
Precipitation---
Heating Degree Days61.4 (Base 65)
Averaged from 24 records on January 23, 2013
WEATHER CONDITIONS BREAKOUT
WIND DIRECTION BREAKOUT
WEATHER BY HOUR - JANUARY 23, 2013
[ °C ]   °F
Local TimeTemperatureDewpointHumidityBarometerVisibilityWind DirectionWind SpeedGust SpeedPrecipitationEventsConditions
1:53 AM0.0 °F-5.1 °F79 %30.12 in10.0 miWest (260°)9.2 mphClear
2:53 AM0.0 °F-6.0 °F76 %30.14 in10.0 miWest (260°)9.2 mphPartly Cloudy
3:53 AM0.0 °F-6.0 °F76 %30.13 in10.0 miWest (270°)9.2 mphClear
4:53 AM0.0 °F-6.0 °F76 %30.14 in10.0 miWest (260°)9.2 mphClear
5:53 AM0.0 °F-6.0 °F76 %30.15 in10.0 miWest (270°)8.1 mphClear
6:53 AM-0.9 °F-6.0 °F79 %30.16 in10.0 miWest (260°)9.2 mphPartly Cloudy
7:53 AM-0.9 °F-6.0 °F79 %30.16 in10.0 miWest (270°)8.1 mphPartly Cloudy
8:53 AM1.9 °F-5.1 °F72 %30.17 in10.0 miWest (260°)8.1 mphClear
9:53 AM3.9 °F-5.1 °F66 %30.19 in10.0 miWNW (300°)9.2 mphPartly Cloudy
10:39 AM6.8 °F-4.0 °F61 %30.07 in10.0 miWNW (300°)8.1 mph16.1 mphMostly Cloudy
10:53 AM6.1 °F-5.1 °F60 %30.19 in10.0 miWNW (300°)11.5 mphOvercast
11:53 AM7.0 °F-2.9 °F64 %30.16 in6.0 miWNW (300°)8.1 mph17.3 mph0.00 inSnowLight Snow
12:53 PM7.0 °F-6.0 °F55 %30.14 in10.0 miWNW (300°)12.7 mph0.00 inOvercast
1:53 PM8.1 °F-9.9 °F44 %30.13 in10.0 miNW (320°)11.5 mph18.4 mphOvercast
2:53 PM8.1 °F-7.1 °F50 %30.14 in10.0 miNNW (330°)8.1 mphMostly Cloudy
3:53 PM8.1 °F-6.0 °F53 %30.14 in10.0 miWest (280°)11.5 mph16.1 mphScattered Clouds
4:53 PM8.1 °F-5.1 °F55 %30.14 in10.0 miWNW (300°)6.9 mphPartly Cloudy
5:53 PM6.1 °F-4.0 °F63 %30.15 in10.0 miWest (270°)3.5 mphClear
6:53 PM6.1 °F-4.0 °F63 %30.15 in10.0 miCalmScattered Clouds
7:53 PM5.0 °F-6.0 °F61 %30.14 in10.0 miSW (230°)4.6 mphPartly Cloudy
8:53 PM5.0 °F-7.1 °F58 %30.12 in10.0 miSW (230°)4.6 mphClear
9:53 PM3.9 °F-6.0 °F64 %30.12 in10.0 miSW (230°)5.8 mphClear
10:53 PM3.9 °F-5.1 °F66 %30.12 in10.0 miSW (220°)4.6 mphClear
11:53 PM3.9 °F-2.9 °F73 %30.11 in10.0 miSW (220°)4.6 mphOvercast
Hourly data recorded from KBGM, located miles away from Lawton, Pennsylvania







STORIES FROM OUR PARTNERS